[[{"header":{"parameterUnit":"m.s-1","parameterCategory":1,"la1":30.2991,"la2":30.254,"lo1":-89.0895,"lo2":-89.0444,"dy":0.0017,"dx":0.0017,"nx":28,"ny":28,"refTime":"2025-08-06T03:00:00:Z","depth":0,"parameterNumber":2,"parameterNumberName":"U-component_of_WINDS"},"data":[0,0,0,0,0,0,0,0,0,0,0,0,0,0,0,0,0,0,0,0,0,0,0,0,0,0,0,0,0,0,0,0,0,0,0,0,0,0,0,0,0,0,0,0,0,0,0,0,0,0,0,0,0,0,0,0,0,0,-4.5682,-4.5683,0,-4.5782,-4.5784,-4.5785,-4.5713,-4.571,-4.5707,-4.5704,-4.5803,-4.5809,-4.5814,0,0,0,0,0,0,0,0,0,0,0,0,0,-4.5425,-4.5431,-4.5682,-4.5684,-4.5685,-4.5782,-4.5784,-4.5785,-4.5714,-4.571,-4.5706,-4.5703,-4.5802,-4.5808,-4.5815,0,0,0,0,0,0,0,0,0,0,0,0,0,-4.5532,-4.5432,-4.5682,-4.5661,-4.566,-4.5782,-4.5784,-4.5785,-4.5715,-4.571,-4.5705,-4.5701,-4.5799,-4.5808,-4.5816,-4.5962,0,0,-4.5841,-4.5845,0,0,0,0,0,0,0,0,-4.5526,-4.5542,-4.5663,-4.5663,-4.5662,-4.5731,-4.5729,-4.5845,-4.5716,-4.5694,-4.5704,-4.5699,-4.5783,-4.5792,-4.5821,-4.5967,-4.5971,-4.5842,-4.5847,-4.5851,-4.5853,0,0,0,0,0,0,0,-4.5519,-4.5537,-4.5722,-4.5665,-4.5664,-4.5645,-4.5655,-4.5751,-4.5764,-4.5696,-4.5691,-4.5704,-4.5782,-4.5813,-4.5823,-4.5973,-4.5842,-4.5849,-4.5855,-4.5858,-4.6241,-4.6246,0,0,0,0,0,0,-4.5514,-4.5531,-4.5719,-4.5725,-4.5581,-4.5654,-4.5665,-4.5713,-4.5762,-4.5765,-4.5708,-4.57,-4.5801,-4.5813,-4.5826,-4.5999,-4.5851,-4.5859,-4.5863,-4.6236,-4.6242,-4.6248,0,0,0,0,0,0,-4.5509,-4.5532,-4.5714,-4.5627,-4.5649,-4.5663,-4.5718,-4.5718,-4.575,-4.5772,-4.5773,-4.5738,-4.5798,-4.5815,-4.5929,-4.6002,-4.5862,-4.587,-4.623,-4.6238,-4.6245,-4.6348,0,0,0,0,0,0,-4.5502,-4.553,-4.5587,-4.5629,-4.5654,-4.5817,-4.5723,-4.5723,-4.5765,-4.5756,-4.5801,-4.5803,-4.5796,-4.5917,-4.5937,-4.6011,-4.5877,-4.6223,-4.6233,-4.6243,-4.6338,-4.6358,-4.6375,0,0,0,0,0,-4.5493,-4.5612,-4.559,-4.5613,-4.5725,-4.5821,-4.5835,-4.5825,-4.5771,-4.5827,-4.5841,-4.5802,-4.5991,-4.5929,-4.5951,-4.6029,-4.6219,-4.6231,-4.6242,-4.6329,-4.6354,-4.6375,0,0,0,0,0,0,-4.5578,-4.5617,-4.5594,-4.573,-4.5773,-4.5809,-4.588,-4.5852,-4.591,-4.5899,-4.5883,-4.5894,-4.6013,-4.6032,-4.5963,-4.6172,-4.6096,-4.6113,-4.6155,-4.6178,-4.6197,-4.6189,-4.5884,0,0,0,0,0,-4.5612,-4.5688,-4.5718,-4.5835,-4.5858,-4.5866,-4.5907,-4.5895,-4.5939,-4.5956,-4.5979,-4.6021,-4.609,-4.6135,-4.62,-4.6341,-4.6348,-4.6405,-4.6424,-4.6439,-4.6453,-4.6526,-4.6551,-4.6286,-4.6286,-4.6286,0,0,-4.5684,-4.5715,-4.5764,-4.5853,-4.5885,-4.5962,-4.5881,-4.5967,-4.6023,-4.5969,-4.6078,-4.6096,-4.6142,-4.627,-4.6327,-4.6289,-4.6528,-4.6454,-4.6466,-4.6471,-4.6541,-4.6566,-4.6588,-4.6294,-4.6292,-4.6291,0,0,-4.5855,-4.5887,-4.5987,-4.6021,-4.607,-4.6074,-4.6099,-4.6139,-4.6149,-4.6258,-4.6219,-4.6285,-4.6404,-4.6438,-4.6471,-4.6654,-4.6619,-4.6675,-4.6772,-4.6844,-4.6865,-4.6883,-4.6946,-4.6969,-4.6689,-4.669,-4.669,0,-4.5938,-4.6054,-4.6042,-4.613,-4.6169,-4.6124,-4.6224,-4.6257,-4.6325,-4.6353,-4.631,-4.6458,-4.6486,-4.662,-4.6664,-4.6693,-4.6718,-4.6669,-4.6863,-4.6881,-4.6898,-4.6958,-4.6982,-4.6696,-4.6695,-4.6695,-4.6694,0,-4.6152,-4.6233,-4.6308,-4.6375,-4.6423,-4.6517,-4.6517,-4.6567,-4.6551,-4.6559,-4.667,-4.6702,-4.6771,-4.6802,-4.6788,-4.6934,-4.6909,-4.6865,-4.6788,-4.693,-4.6986,-4.7009,-4.6705,-4.6703,-4.6701,-4.6699,0,0,-4.6378,-4.6437,-4.6465,-4.6493,-4.6545,-4.6606,-4.6697,-4.6766,-4.6807,-4.6856,-4.693,-4.7032,-4.6991,-4.7029,-4.7017,-4.7081,-4.722,-4.7029,-4.703,-4.7061,-4.7381,-4.7412,-4.7438,-4.7198,-4.7203,-4.7206,-4.7376,0,-4.655,-4.6709,-4.67,-4.6849,-4.6922,-4.688,-4.6959,-4.6998,-4.7008,-4.707,-4.7081,-4.7152,-4.7095,-4.7117,-4.7178,-4.719,-4.7284,-4.7178,-4.7265,-4.7268,-4.7253,-4.7468,-4.7501,-4.766,-4.7398,-4.7402,-4.7404,0,-4.6771,-4.6827,-4.6983,-4.7021,-4.7052,-4.7123,-4.7184,-4.7245,-4.7288,-4.729,-4.7332,-4.731,-4.74,-4.7322,-4.7444,-4.7373,-4.7408,-4.7419,-4.7425,-4.7431,-4.7344,-4.7478,-4.7711,-4.7734,-4.7439,-4.7436,-4.7434,0,-4.6917,-4.7032,-4.7139,-4.7166,-4.7214,-4.7265,-4.7287,-4.7325,-4.7366,-4.7419,-4.7445,-4.7509,-4.7543,-4.7591,-4.7586,-4.753,-4.771,-4.7632,-4.7712,-4.7712,-4.775,-4.7748,-4.799,-4.7777,-4.7777,-4.7776,-4.7776,0,-4.7108,-4.7205,-4.7206,-4.7272,-4.7378,-4.7367,-4.7472,-4.7488,-4.7522,-4.759,-4.7557,-4.7621,-4.7611,-4.7674,-4.7671,-4.7771,-4.7787,-4.779,-4.7788,-4.7792,-4.7792,-4.7814,-4.7802,-4.7782,-4.7781,-4.778,-4.7779,0,-4.7289,-4.7294,-4.7408,-4.7444,-4.7456,-4.7532,-4.7562,-4.7624,-4.7631,-4.7716,-4.7736,-4.7747,-4.7819,-4.7819,-4.7902,-4.7899,-4.8022,-4.8008,-4.8008,-4.8004,-4.8084,-4.8076,-4.8347,-4.8381,-4.8148,-4.815,-4.8152,0,-4.741,-4.7483,-4.7527,-4.757,-4.7596,-4.7666,-4.7707,-4.7699,-4.7743,-4.7797,-4.7852,-4.7921,-4.7976,-4.8094,-4.8108,-4.8171,-4.8157,-4.8248,-4.8166,-4.8167,-4.8155,-4.815,-4.8157,-4.8263,-4.8266,-4.8268,-4.827,0,-4.7623,-4.7621,-4.7683,-4.7746,-4.7797,-4.7846,-4.7891,-4.7928,-4.7924,-4.7975,-4.8049,-4.8092,-4.8177,-4.8246,-4.8306,-4.8327,-4.8297,-4.8296,-4.8317,-4.8321,-4.8317,-4.8318,-4.8049,-4.8289,-4.8287,-4.8286,-4.8285,-4.8284,-4.7776,-4.7838,-4.7878,-4.7948,-4.7981,-4.8024,-4.8083,-4.8097,-4.8159,-4.8228,-4.8219,-4.8301,-4.834,-4.8418,-4.8444,-4.8507,-4.8475,-4.8507,-4.8515,-4.8522,-4.853,-4.8309,-4.8518,-4.8518,-4.8517,-4.8517,-4.8516,0,-4.7985,-4.8008,-4.8073,-4.8137,-4.8191,-4.816,-4.8208,-4.8255,-4.8328,-4.8367,-4.8422,-4.8506,-4.8573,-4.8592,-4.8656,-4.8702,-4.869,-4.8719,-4.8715,-4.8719,-4.8556,-4.853,-4.8728,-4.8728,-4.8728,-4.8728,-4.8728,-4.8728,-4.81,-4.8203,-4.8206,-4.8324,-4.8347,-4.8428,-4.8458,-4.8496,-4.8527,-4.8623,-4.8678,-4.8691,-4.8722,-4.8787,-4.8846,-4.885,-4.8874,-4.8908,-4.8906,-4.8753,-4.8731,-4.8711,-4.8686,-4.8914,-4.8914,-4.9064,-4.9065,-4.9067]},{"header":{"parameterUnit":"m.s-1","parameterCategory":1,"la1":30.2991,"la2":30.254,"lo1":-89.0895,"lo2":-89.0444,"dy":0.0017,"dx":0.0017,"nx":28,"ny":28,"refTime":"2025-08-06T03:00:00:Z","depth":0,"parameterNumber":3,"parameterNumberName":"V-component_of_WINDS"},"data":[0,0,0,0,0,0,0,0,0,0,0,0,0,0,0,0,0,0,0,0,0,0,0,0,0,0,0,0,0,0,0,0,0,0,0,0,0,0,0,0,0,0,0,0,0,0,0,0,0,0,0,0,0,0,0,0,0,0,-0.2744,-0.2746,0,-0.2872,-0.2873,-0.2875,-0.2896,-0.2895,-0.2894,-0.2893,-0.3027,-0.3032,-0.3036,0,0,0,0,0,0,0,0,0,0,0,0,0,-0.2523,-0.2527,-0.2744,-0.2746,-0.2748,-0.2871,-0.2873,-0.2875,-0.2896,-0.2895,-0.2893,-0.2892,-0.3026,-0.3031,-0.3037,0,0,0,0,0,0,0,0,0,0,0,0,0,-0.2631,-0.2528,-0.2744,-0.2773,-0.2777,-0.2871,-0.2873,-0.2875,-0.2896,-0.2895,-0.2893,-0.2892,-0.3024,-0.3031,-0.3037,-0.3113,0,0,-0.3058,-0.3061,0,0,0,0,0,0,0,0,-0.2625,-0.264,-0.2767,-0.2771,-0.2776,-0.2866,-0.2844,-0.2955,-0.2897,-0.2851,-0.2893,-0.2891,-0.2975,-0.2986,-0.3014,-0.3119,-0.3125,-0.3059,-0.3063,-0.3066,-0.3068,0,0,0,0,0,0,0,-0.2618,-0.2634,-0.2795,-0.2769,-0.2774,-0.2781,-0.2794,-0.2865,-0.2921,-0.2855,-0.2857,-0.2871,-0.2977,-0.3007,-0.3017,-0.3127,-0.3059,-0.3065,-0.3069,-0.3072,-0.3301,-0.3303,0,0,0,0,0,0,-0.2604,-0.2628,-0.2791,-0.2799,-0.2695,-0.2786,-0.2801,-0.2839,-0.292,-0.2931,-0.2873,-0.2872,-0.2996,-0.3009,-0.3022,-0.3116,-0.3066,-0.3073,-0.3077,-0.3299,-0.3301,-0.3304,0,0,0,0,0,0,-0.26,-0.2619,-0.2786,-0.2714,-0.2735,-0.2791,-0.2834,-0.2842,-0.2872,-0.2934,-0.2944,-0.2893,-0.2995,-0.3012,-0.309,-0.3121,-0.3076,-0.3082,-0.3297,-0.33,-0.3302,-0.3305,0,0,0,0,0,0,-0.2593,-0.2617,-0.2646,-0.2714,-0.2739,-0.2851,-0.2836,-0.2846,-0.2883,-0.2883,-0.2955,-0.2965,-0.2995,-0.3079,-0.3097,-0.313,-0.3087,-0.3294,-0.3298,-0.3302,-0.3302,-0.3307,-0.3312,0,0,0,0,0,-0.2585,-0.2642,-0.2647,-0.2667,-0.2776,-0.2853,-0.2867,-0.2899,-0.2886,-0.2916,-0.2955,-0.2963,-0.3114,-0.3087,-0.3107,-0.3142,-0.3293,-0.3297,-0.3301,-0.33,-0.3306,-0.3312,0,0,0,0,0,0,-0.2578,-0.2652,-0.2658,-0.2739,-0.2789,-0.2856,-0.2895,-0.2905,-0.2961,-0.2959,-0.2997,-0.3013,-0.3089,-0.3123,-0.3092,-0.322,-0.3203,-0.3211,-0.3195,-0.3201,-0.3206,-0.3197,-0.3093,0,0,0,0,0,-0.2585,-0.264,-0.2702,-0.2767,-0.2792,-0.2839,-0.2873,-0.2893,-0.2947,-0.2969,-0.3015,-0.3068,-0.3127,-0.3166,-0.3224,-0.3306,-0.3323,-0.3341,-0.3345,-0.3349,-0.3357,-0.3403,-0.3412,-0.3318,-0.3318,-0.3318,0,0,-0.2602,-0.2649,-0.2682,-0.2767,-0.2808,-0.2865,-0.2857,-0.2917,-0.296,-0.2979,-0.3055,-0.309,-0.3152,-0.3232,-0.327,-0.3263,-0.3386,-0.3354,-0.3357,-0.3363,-0.3408,-0.3417,-0.3425,-0.3321,-0.332,-0.332,0,0,-0.2661,-0.2702,-0.2761,-0.2802,-0.2864,-0.2894,-0.2908,-0.2973,-0.2997,-0.3073,-0.3088,-0.314,-0.3242,-0.3285,-0.3321,-0.3395,-0.3405,-0.3413,-0.3439,-0.3483,-0.3491,-0.3498,-0.3525,-0.3534,-0.3419,-0.3419,-0.3419,0,-0.2675,-0.276,-0.279,-0.285,-0.2887,-0.2904,-0.2965,-0.3004,-0.3082,-0.3108,-0.3098,-0.3226,-0.3269,-0.336,-0.3377,-0.3405,-0.3423,-0.3406,-0.3487,-0.3494,-0.3501,-0.3528,-0.3538,-0.342,-0.342,-0.342,-0.342,0,-0.2774,-0.2832,-0.2873,-0.2946,-0.2988,-0.3047,-0.3087,-0.3126,-0.3142,-0.3173,-0.3251,-0.3303,-0.3372,-0.3394,-0.3411,-0.3488,-0.3482,-0.3479,-0.3463,-0.351,-0.3536,-0.3546,-0.3421,-0.3421,-0.3421,-0.342,0,0,-0.2835,-0.2922,-0.2937,-0.297,-0.3039,-0.3085,-0.3145,-0.3211,-0.3244,-0.3297,-0.3349,-0.3434,-0.3432,-0.3472,-0.3493,-0.3532,-0.3589,-0.3525,-0.3527,-0.3536,-0.3677,-0.368,-0.3691,-0.3594,-0.3596,-0.3598,-0.3672,0,-0.2903,-0.301,-0.3038,-0.313,-0.3185,-0.3201,-0.3254,-0.3302,-0.3333,-0.3385,-0.3419,-0.3479,-0.3471,-0.3495,-0.3534,-0.3573,-0.3618,-0.3568,-0.3645,-0.3648,-0.3631,-0.3704,-0.3708,-0.3775,-0.3683,-0.3684,-0.3686,0,-0.2998,-0.3051,-0.3148,-0.3208,-0.3233,-0.3279,-0.3342,-0.339,-0.3446,-0.3465,-0.3509,-0.3526,-0.3591,-0.3569,-0.3659,-0.3625,-0.3658,-0.3682,-0.3685,-0.3695,-0.3671,-0.3718,-0.3798,-0.3808,-0.3701,-0.37,-0.3699,0,-0.3034,-0.313,-0.32,-0.3228,-0.33,-0.3333,-0.3365,-0.3418,-0.3455,-0.351,-0.3535,-0.3596,-0.3631,-0.3678,-0.3713,-0.3694,-0.38,-0.3781,-0.382,-0.3819,-0.3843,-0.3841,-0.3931,-0.3861,-0.3861,-0.3861,-0.3861,0,-0.3109,-0.3168,-0.3217,-0.326,-0.3326,-0.3358,-0.3423,-0.3456,-0.3503,-0.3554,-0.3571,-0.3619,-0.366,-0.3713,-0.374,-0.3811,-0.3826,-0.3845,-0.3852,-0.3844,-0.3842,-0.3868,-0.3865,-0.3864,-0.3863,-0.3862,-0.3862,0,-0.3161,-0.3196,-0.3274,-0.3335,-0.3352,-0.3398,-0.3451,-0.3495,-0.3525,-0.3589,-0.3605,-0.3654,-0.3717,-0.3755,-0.3836,-0.3854,-0.3933,-0.3937,-0.3914,-0.3917,-0.3954,-0.3951,-0.4065,-0.4082,-0.3999,-0.4,-0.4,0,-0.3208,-0.3253,-0.3318,-0.3353,-0.3384,-0.344,-0.3478,-0.351,-0.3549,-0.3614,-0.365,-0.3714,-0.3767,-0.3868,-0.3911,-0.3973,-0.398,-0.4015,-0.3989,-0.3981,-0.3982,-0.398,-0.3985,-0.402,-0.4021,-0.4022,-0.4022,0,-0.3286,-0.3301,-0.3354,-0.3413,-0.3457,-0.3505,-0.3554,-0.3581,-0.3622,-0.3665,-0.3729,-0.377,-0.3851,-0.3915,-0.398,-0.4015,-0.4026,-0.4029,-0.4042,-0.4036,-0.4021,-0.4031,-0.3928,-0.4027,-0.4027,-0.4027,-0.4026,-0.4026,-0.3338,-0.3379,-0.3431,-0.349,-0.3529,-0.3573,-0.3617,-0.3651,-0.3705,-0.3773,-0.3789,-0.3856,-0.391,-0.3998,-0.4034,-0.4088,-0.4083,-0.41,-0.4105,-0.4109,-0.4111,-0.4011,-0.41,-0.41,-0.41,-0.41,-0.41,0,-0.3419,-0.3453,-0.3506,-0.3572,-0.3618,-0.3622,-0.3675,-0.3714,-0.3773,-0.3821,-0.3872,-0.3946,-0.4008,-0.4055,-0.4118,-0.4153,-0.4159,-0.4168,-0.4167,-0.4175,-0.4112,-0.4095,-0.4162,-0.4162,-0.4162,-0.4162,-0.4162,-0.4162,-0.3467,-0.3536,-0.3557,-0.3646,-0.368,-0.3745,-0.3775,-0.3816,-0.3855,-0.3936,-0.3987,-0.4016,-0.4064,-0.4131,-0.4188,-0.4201,-0.4224,-0.4232,-0.4246,-0.4186,-0.418,-0.4173,-0.4158,-0.4237,-0.4237,-0.4305,-0.4306,-0.4306]}]]